www.pogodaiklimat.ru

Погода и климат >> Архив погоды >> Иран >> Месджеде-Солейман


ПОГОДА в Месджеде-Солеймане

  • Прогноз погоды в Месджеде-Солеймане
  • Монитор погоды в Месджеде-Солеймане

АРХИВ ПОГОДЫ в Месджеде-Солеймане

Время (UTC), дата Ветер
(напр.,м/с)
 
Видим.   Явления Облачность Т
(С)
Тd
(С)
f
(%)
Тe
(С)
Тes
(С)
Комфортность P
(гПа)
Po
(гПа)
Тmin
(С)
Tmax
(С)
R
(мм)
R24
(мм)
S
(см)
06 16.05 В 2 10 км ясно +36.4 +1.4 11 +33 +47 жарко 1004.2 969.9
09 16.05 З 2 10 км ясно +39.1 -2.0 7 +35 +56 опасность
солнечного
удара
1004.0 969.3 666
12 16.05 ЮВ 2 10 км ясно +39.4 -3.7 6 +35 +46 очень
жарко
1002.4 967.7
15 16.05 З 4 10 км 3/1 1200 м
[Cu med, cong Ac trans]
+37.9 -2.5 8 +34 +34 очень
жарко
1001.7 966.9 +40.7 666
18 16.05 Ю 2 10 км 1/1 1200 м
[Cu med, cong]
+32.8 +4.5 17 +30 +30 жарко 1003.3 968.6
21 16.05 ЮВ 1 10 км 1/1 1200 м
[Cu med, cong]
+29.1 +4.9 21 +27 +27 жарко 1003.5 968.7
00 17.05 ЮВ 2 10 км ясно +27.3 +3.5 22 +26 +26 жарко 1004.0 969.1
03 17.05 Ю 1 10 км 4/4 1200 м
[Cu hum]
+28.4 +6.5 25 +27 +28 жарко 1005.4 970.5 +25.7 666
06 17.05 ЮВ 4 10 км 3/3 1200 м
[Sc]
+35.4 +3.8 14 +32 +39 жарко 1006.3 971.4
09 17.05 ЮЗ 4 10 км 3/0
[Ac trans]
+37.6 -1.0 9 +34 +45 очень
жарко
1006.2 971.2
12 17.05 ЮВ 4 10 км ясно +38.4 +3.0 11 +35 +42 очень
жарко
1004.2 969.2
15 17.05 З 3 10 км 3/3 1200 м
[Cu med, cong]
+36.7 +0.7 10 +33 +33 жарко 1002.9 967.9 +38.8
18 17.05 ЮЗ 1 10 км ясно +31.2 +2.7 16 +29 +29 жарко 1003.8 968.9
21 17.05 штиль 0 10 км ясно +29.4 +3.6 19 +27 +27 жарко 1004.4 969.5
00 18.05 штиль 0 10 км ясно +28.2 +4.9 23 +27 +27 жарко 1004.6 969.7
03 18.05 СЗ 1 10 км ясно +26.4 +6.9 29 +26 +28 жарко 1005.6 970.5 +24.5
06 18.05 СЗ 2 10 км ясно +34.8 +3.8 14 +32 +46 жарко 1006.4 971.3
09 18.05 З 1 10 км ясно +37.8 +3.1 12 +35 +60 опасность
солнечного
удара
1005.3 970.3
12 18.05 Ю 2 10 км ясно +39.7 -2.4 7 +36 +47 очень
жарко
1003.3 968.3
15 18.05 СВ 3 10 км 4/4 1200 м
[Cu med, cong]
+36.8 -0.9 9 +33 +33 жарко 1002.8 967.7 +39.7 666
18 18.05 С 2 10 км ясно +31.8 +2.7 16 +29 +29 жарко 1004.4 969.4
21 18.05 ЮВ 3 10 км ясно +29.4 +5.1 21 +28 +28 жарко 1004.8 969.9
00 19.05 ЮЗ 1 10 км ясно +25.9 +9.3 35 +26 +26 жарко 1004.8 969.8
03 19.05 штиль 0 10 км 6/0
[Cs]
+25.8 +10.6 38 +27 +28 жарко 1005.8 970.6 +25.4 666
06 19.05 С 1 10 км 6/0
[Cs]
+32.4 +9.0 24 +31 +46 жарко 1006.3 971.3
09 19.05 ЮВ 2 10 км 5/0
[Cs]
+37.6 +5.2 14 +35 +54 опасность
солнечного
удара
1005.9 970.9 666
12 19.05 Ю 3 10 км 5/5 1200 м
[Sc diur, vesp]
+38.4 +3.2 11 +35 +40 очень
жарко
1004.5 969.4
15 19.05 Ю 4 3000 м пыль 6/4 1200 м
[Sc diur, vesp Ac trans]
+34.0 +8.5 21 +33 +33 жарко 1005.4 970.2 +39.2
18 19.05 Ю 2 7000 м пыль 4/4 1200 м
[Sc diur, vesp]
+31.3 +10.2 27 +31 +31 жарко 1007.2 972.0
21 19.05 СЗ 2 8000 м пыль 6/4 1200 м
[Sc diur, vesp Ac As]
+28.5 +11.3 34 +29 +29 жарко 1007.1 972.1
00 20.05 СЗ 1 10 км 4/4 1200 м
[Sc diur, vesp]
+29.2 +5.3 22 +28 +28 жарко 1006.1 971.2
03 20.05 З 1 10 км 6/4 1200 м
[Sc diur, vesp Ac As]
+26.7 +7.1 29 +26 +27 жарко 1007.7 972.4 +26.7
06 20.05 С 1 10 км 5/0
[Cs]
+32.9 +6.1 19 +31 +46 жарко 1008.9 973.7
09 20.05 СВ 1 10 км 6/0
[Cs]
+34.8 +6.4 17 +33 +55 опасность
солнечного
удара
1008.4 973.2
12 20.05 З 5 10 км 5/5 1200 м
[Sc diur, vesp]
+36.9 +6.2 15 +34 +37 очень
жарко
1005.8 970.8
15 20.05 З 3 10 км 5/5 1200 м
[Sc diur, vesp]
+34.7 +6.8 18 +33 +33 жарко 1005.4 970.2 +37.7
18 20.05 ЮВ 4 10 км гроза без осадков 6/6 1050 м
[Cb calv]
+29.0 +9.4 29 +29 +29 жарко 1008.3 973.0
21 20.05 З 2 10 км 5/5 1050 м
[Cb calv]
+25.4 +10.2 38 +26 +26 жарко 1010.8 975.4
00 21.05 ЮВ 2 10 км 5/5 1200 м
[Sc]
+26.8 +8.8 32 +27 +27 жарко 1006.7 971.5 0.1
03 21.05 СЗ 2 10 км 4/0
[Ci fib]
+24.4 +12.1 46 +26 +27 жарко 1007.9 972.5 +23.6
06 21.05 З 1 10 км 3/0
[Ci fib]
+32.9 +9.0 23 +32 +47 жарко 1009.2 973.9
09 21.05 З 8 10 км 1/0
[Ci fib]
+35.2 +5.0 15 +32 +36 жарко 1009.1 973.6
12 21.05 З 6 10 км 3/0
[Ci fib]
+36.5 +0.2 10 +33 +37 жарко 1007.3 972.0
15 21.05 СЗ 4 10 км ясно +34.8 -0.1 11 +31 +32 жарко 1006.7 971.3 +37.1
18 21.05 СЗ 1 10 км ясно +30.2 +3.3 18 +28 +28 жарко 1007.6 972.4
21 21.05 ЮВ 2 10 км ясно +27.8 +4.9 23 +27 +27 жарко 1008.2 972.9
00 22.05 ЮВ 2 10 км ясно +26.3 +4.7 25 +25 +25 комфорт 1007.9 972.7
03 22.05 Ю 2 10 км ясно +26.6 +5.3 26 +26 +27 жарко 1008.6 973.2 +24.8
06 22.05 В 2 10 км ясно +33.3 +3.9 16 +31 +45 жарко 1009.2 973.9
09 22.05 З 5 10 км 3/3 1200 м
[Cu hum]
+35.2 +0.4 11 +32 +40 жарко 1008.5 973.2 666
12 22.05 З 2 10 км 5/5 1200 м
[Sc diur, vesp]
+36.2 -1.7 9 +32 +38 жарко 1007.0 971.7
15 22.05 С 3 10 км ясно +34.9 -2.6 9 +31 +31 жарко 1006.0 970.6 +36.8
18 22.05 СВ 1 10 км ясно +29.8 +1.6 16 +27 +27 жарко 1006.5 971.3
21 22.05 ЮВ 1 10 км ясно +27.8 +2.0 19 +26 +26 жарко 1006.1 970.9
00 23.05 ЮВ 1 10 км ясно +24.7 +2.6 24 +24 +24 комфорт 1005.5 970.2

 

Местоположение метеостанции Месджеде-Солейман (Иран): широта 31.98 долгота 49.27 высота над уровнем моря 320 м.

В архиве по умолчанию представлена погода в Месджеде-Солеймане за последнюю неделю. Архивные данные за месяц целиком и за предыдущие месяцы, начиная с января 2011 года, Вы можете получить, выбрав интересующий диапазон дат из раскрывающегося списка и нажав кнопку "Ввод!".


*Определитесь, кто Вы:
робот инопланетянин человек

Внимание! Время в таблицах - всемирное. Для получения местного времени необходимо прибавить поправку, которая равна 3.5 ч.

Смотрите также архив погоды в соседних городах и на ближайших метеорологических станциях:

Погода в Сафиабаде (Иран) (86 км)
Погода в Ахвазе (Иран) (92 км)
Погода в Омидийе (Иран) (140 км)
Погода в Шехре-Корде (Иран) (153 км)
Погода в Элигудерзе (Иран) (163 км)
Погода в Хорремабаде (Иран) (187 км)
Погода в Амаре (Ирак) (199 км)
Погода в Абадане (Иран) (204 км)
Погода в Басре (Ирак) (211 км)
Погода в Басре аэропорт (Ирак) (216 км)

Пояснения к столбцам:

Ветер - указаны скорость ветра в м/с - средняя за 10 мин, порывы в срок и между сроками (в фигурных скобках) и направление, откуда дует ветер: С - северный, СВ - северо-восточный, В - восточный, ЮВ - юго-восточный, Ю - южный, ЮЗ - юго-западный, З - западный, СЗ - северо-западный.
Видимость - горизонтальная дальность видимости в метрах или километрах. При видимости от 1 до 10 км при отсутствии осадков обычно наблюдается дымка, при ухудшении видимости до 1 км и менее - туман. В сухую погоду видимость может ухудшаться дымом, пылью или мглою.
Явления - указаны атмосферные явления, наблюдавшиеся в срок или в последний час перед сроком; фигурными скобками обозначены явления, наблюдавшиеся между сроками (за 1-3 часа до срока); квадратными скобками обозначены град или гололедные отложения с указанием их диаметра в мм.
Облачность - указаны через наклонную черту общая и нижняя облачность в баллах и высота нижней границы облаков в метрах; квадратными скобками обозначены формы облаков: Ci - перистые, Cs - перисто-слоистые, Cc - перисто-кучевые, Ac - высококучевые, As - высокослоистые, Sc - слоисто-кучевые, Ns - слоисто-дождевые, Cu - кучевые, Cb - кучево-дождевые. Подробнее классификацию облаков см. в Атласе облаков (PDF).
T - Температура воздуха - температура, измеренная на высоте 2 м над землей.
Td - Температура точки росы - температура, при понижении до которой содержащийся в воздухе водяной пар достигнет насыщения.
f - Относительная влажность воздуха - влажноcть воздуха, измеренная на высоте 2 м над землей.
Te - Эффективная температура - температура, которую ощущает одетый по сезону человек в тени. Характеристика душности погоды. При расчете учитывается влияние влажности воздуха и скорости ветра на теплоощущения человека.
Tes - Эффективная температура на солнце - температура, которую ощущает человек, с поправкой на солнечный нагрев. Характеристика знойности погоды. Зависит от высоты солнца над горизонтом, облачности и скорости ветра. Ночью, в пасмурную погоду, а также при ветре 12 м/с и более поправка равна нулю.
P - Атмосферное давление - приведенное к уровню моря атмосферное давление.
Po - Атмосферное давление - измеренное на уровне метеостанции атмосферное давление.
Tmin - Минимальная температура - минимум температуры воздуха на высоте 2 м над землей.
Tmax - Максимальная температура - максимум температуры воздуха на высоте 2 м над землей.
R - Количество осадков - Количество выпавших осадков за период времени, мм. При наведении курсора мыши на число - период времени, за который выпало указанное количество осадков.
R24 - Количество осадков - Количество выпавших осадков за 24 часа, мм.
S - Снежный покров - Высота снежного покрова, см. При наведении курсора мыши на число - состояние снежного покрова и степень покрытия местности в баллах.